Powrót do katalogu

FREGAT DEB

AktywnyUNKNOWN
NORAD 45888·DEBRIS·🇷🇺 Russia

Wystrzelony Jul 18, 2011 z Baikonur Cosmodrome

Loading…

Następne Przeloty (najbliższe 24 godziny)

TLE

ŚwieżeSource: Space-Track

Epoka: Sep 12, 2026, 09:27 UTC

1 45888U 11037DH  26255.39413150  .00001875  00000-0  40837-3 0  9997
2 45888  51.4547 261.8753 1800842 158.0446 210.8644 11.48244284255571

Śledź FREGAT DEB w czasie rzeczywistym z AllMySat

Download on the App Store